Temperature
22 22 22 20 19 18 17 17 16 16 16 16 16 15 15 15 15 15 15 15 15 15 15 15 15 15 15 15 15 15 15 15 15 15 15 16 16 15 15 14 13 13 13
23 23 22 20 19 17 17 16 16 16 16 16 15 15 15 16 15 15 15 15 15 14 14 15 15 15 15 15 15 15 15 15 15 15 15 15 15 15 14 14 14 14 13
22 22 21 20 18 17 16 16 16 16 16 16 15 16 16 16 15 15 15 15 15 14 15 15 15 15 15 15 15 15 15 14 14 14 13 14 14 14 14 14 14 14 14
20 21 21 20 18 17 16 16 16 16 16 16 16 16 16 16 15 15 15 15 14 14 15 15 15 15 15 15 15 14 14 14 13 13 13 13 14 14 14 14 14 14 14
19 20 21 20 18 17 16 16 16 16 16 16 16 16 16 15 15 15 15 15 14 15 15 15 15 15 15 15 14 14 14 13 13 13 13 13 13 14 14 14 14 14 13
18 19 20 19 18 17 16 16 15 15 16 16 16 16 16 16 15 15 15 15 14 15 15 15 15 15 15 14 14 14 13 13 13 13 13 13 13 14 14 13 13 13 13
17 18 19 19 17 16 16 16 16 16 16 16 16 16 16 16 16 15 15 15 15 15 15 15 15 15 14 14 14 14 13 13 13 13 13 13 13 13 13 13 13 13 13
18 18 18 18 17 16 16 16 16 16 16 16 16 17 16 16 16 16 15 15 15 15 15 15 15 15 15 14 14 14 14 13 13 13 13 13 13 13 13 13 13 13 13
17 18 18 18 17 16 16 16 16 16 16 16 16 17 17 17 16 16 16 16 15 15 15 15 15 15 15 14 14 14 14 13 13 13 13 13 13 13 13 13 13 13 13
17 17 18 18 17 17 16 16 16 16 16 16 17 17 17 17 17 17 16 16 16 16 16 15 15 15 15 15 14 14 14 13 13 13 13 13 13 13 13 13 13 13 13
17 16 16 17 17 16 16 17 17 17 17 17 17 17 17 17 17 16 17 16 16 16 16 16 15 15 15 15 14 14 14 13 12 12 13 13 13 13 13 13 13 13 13
17 16 16 16 16 16 16 16 17 17 17 17 17 17 17 17 16 16 17 16 16 16 16 16 15 15 15 15 14 14 14 13 12 12 12 12 13 13 13 13 13 13 13
17 16 16 16 16 15 15 16 16 17 17 17 17 17 17 16 15 15 16 16 16 16 16 16 15 15 15 14 14 14 13 13 12 12 12 12 12 12 13 12 12 12 12
16 16 16 16 16 15 15 15 15 15 16 16 16 16 16 15 15 15 16 16 16 16 16 16 15 15 14 14 14 13 13 13 12 12 12 12 12 12 12 12 12 12 12
16 16 16 16 16 16 15 15 15 15 15 15 16 15 15 15 15 15 15 15 16 16 15 15 15 14 14 14 13 13 13 13 12 12 12 12 12 12 12 12 12 12 12
16 16 16 16 16 16 16 16 15 15 15 15 15 15 15 15 15 14 14 14 14 14 14 14 14 14 13 13 13 13 13 12 12 12 12 12 12 12 12 12 12 11 11
17 17 16 16 16 16 16 16 16 16 15 15 15 15 15 15 14 14 14 14 14 14 13 13 13 13 13 13 13 13 13 12 12 12 12 12 12 12 12 12 12 11 11
17 17 17 16 16 16 16 16 16 16 16 15 15 15 15 15 15 14 14 14 14 13 13 13 13 13 13 13 13 13 13 13 12 12 11 12 12 12 12 12 12 11 11
17 17 17 17 16 16 16 16 16 16 16 16 16 16 15 15 15 14 14 14 14 13 13 13 13 13 13 13 13 13 12 12 12 12 11 11 12 12 12 12 12 11 11
16 16 17 17 16 16 16 16 16 16 16 16 16 16 16 15 15 14 14 14 14 13 13 13 13 12 12 12 12 12 12 12 12 12 12 11 11 12 12 12 12 12 11
16 16 16 16 16 16 16 16 16 16 16 16 16 16 16 16 15 15 14 14 13 13 13 13 12 12 12 11 11 11 11 11 11 12 12 11 11 11 11 12 12 11 11
15 15 15 15 16 16 16 16 15 15 15 15 15 15 15 15 15 14 14 14 13 13 13 13 12 12 12 11 11 11 10 10 11 11 11 11 11 11 11 11 11 11 11
13 14 14 15 15 15 15 15 15 15 15 15 14 14 15 15 15 14 14 13 13 12 12 12 12 12 12 11 11 11 11 11 11 11 11 12 11 11 11 11 10 10 10
12 13 13 14 14 14 14 14 14 14 14 14 14 14 14 14 13 13 13 13 12 12 12 12 12 12 11 11 11 11 11 11 11 11 11 11 10 10 10 10 9 9 8
11 12 12 13 13 13 13 13 13 13 13 13 13 13 13 13 13 13 13 12 12 12 12 11 11 11 11 11 11 11 10 10 10 11 11 11 10 9 9 8 8 8 7
11 11 12 12 11 12 12 12 12 12 12 12 12 12 12 13 13 12 12 12 12 12 11 11 11 11 11 11 11 10 10 10 10 10 10 10 10 9 8 8 7 7 6
Wind_Speed
11 17 20 18 17 16 16 15 15 14 14 14 13 12 10 9 8 8 8 9 10 12 14 15 15 15 15 15 15 15 14 14 13 14 14 14 12 11 11 11 9 12 10
16 19 20 19 17 17 16 16 16 15 15 14 12 11 9 8 7 7 9 10 11 13 15 15 15 15 14 14 14 13 12 11 10 11 13 13 12 11 11 13 14 11 10
17 19 19 19 17 17 17 17 16 15 15 13 12 10 9 8 8 9 10 11 12 14 15 15 15 14 14 13 13 12 10 7 5 4 5 10 11 10 9 10 10 10 10
17 18 17 19 18 17 18 18 17 16 14 13 11 10 9 9 10 11 12 13 14 15 15 15 15 14 13 12 11 10 7 4 3 3 2 11 12 10 9 9 9 10 9
15 17 19 19 18 18 19 18 17 15 14 13 11 10 9 11 12 14 14 15 15 15 14 14 13 13 12 11 10 8 4 4 6 5 11 15 13 11 11 11 11 11 11
13 19 19 18 18 19 19 18 16 15 14 12 11 10 10 12 14 15 15 15 15 14 13 13 12 11 10 10 8 5 4 6 7 8 15 16 13 14 14 14 14 14 15
15 19 18 18 18 18 18 17 16 15 14 12 11 10 11 12 13 14 14 14 13 12 12 11 10 9 8 8 6 4 4 8 5 14 16 16 15 15 16 16 16 16 16
16 17 17 17 18 18 17 16 16 15 14 12 10 10 10 11 12 12 12 11 11 11 10 10 9 8 7 6 4 2 4 6 7 15 16 15 14 15 15 15 15 15 15
14 15 14 15 16 16 16 16 15 15 14 13 11 9 10 11 11 10 10 10 10 10 9 9 8 7 6 5 3 0 4 6 4 11 14 13 14 13 13 13 13 13 13
12 12 11 14 15 14 14 14 15 15 15 14 12 11 11 11 10 10 9 9 9 9 9 8 7 6 5 4 3 2 4 6 1 12 14 13 12 11 11 11 11 11 12
5 9 10 11 13 15 15 14 15 15 15 14 13 13 13 11 11 11 10 10 8 9 8 8 7 7 6 5 4 4 5 8 3 12 14 13 11 10 10 10 10 10 10
1 3 5 7 9 12 13 14 14 13 14 14 13 14 13 13 14 13 14 12 10 9 9 9 8 8 8 8 7 6 8 9 5 13 14 14 11 9 9 9 9 9 9
4 1 1 2 5 6 7 11 11 12 14 14 15 17 15 13 11 13 13 12 10 10 9 10 10 10 11 10 11 10 9 5 4 12 15 15 12 9 8 8 8 8 8
8 6 4 2 2 3 6 6 7 8 10 11 13 17 14 7 7 10 11 13 12 12 11 12 11 13 11 8 9 10 6 2 2 12 16 16 13 10 9 8 8 7 7
9 9 8 6 5 3 3 3 4 6 8 11 12 14 14 7 4 7 8 12 14 14 12 11 10 9 8 8 9 7 7 8 6 12 15 16 14 12 10 9 8 8 7
8 9 10 10 8 6 4 3 3 4 7 9 11 13 14 11 8 6 5 7 10 12 13 12 10 6 6 6 5 6 6 8 8 13 17 16 15 14 12 11 10 9 8
5 7 9 10 10 9 8 6 5 6 6 6 9 14 15 14 11 8 4 4 8 12 11 10 10 7 5 5 5 6 6 6 6 11 17 17 16 15 14 13 12 11 10
1 3 5 7 9 9 9 7 6 7 7 6 8 11 14 16 15 10 5 5 10 11 9 5 5 5 5 5 5 5 4 4 5 8 14 17 18 16 16 15 14 13 12
2 3 3 4 6 7 7 6 7 7 7 7 8 9 11 15 16 12 6 7 11 7 5 6 6 5 5 5 5 5 5 4 4 6 8 15 18 19 19 17 16 15 14
3 4 4 3 3 4 4 4 5 6 6 7 7 9 11 12 14 12 8 9 10 6 7 7 7 6 5 6 5 5 5 5 5 5 6 10 15 18 20 19 18 16 16
3 3 4 4 4 2 2 3 4 5 6 6 7 11 12 12 12 10 6 7 8 8 9 9 7 7 7 5 4 3 3 4 6 6 6 6 9 16 18 20 19 18 17
4 5 5 5 5 5 3 2 2 3 4 6 6 9 13 13 13 10 8 8 8 8 9 10 9 7 7 7 5 3 3 5 6 8 6 7 8 12 13 17 20 20 19
7 7 6 7 7 6 6 4 4 3 2 3 4 5 8 11 12 11 9 9 9 9 9 10 10 11 9 8 7 6 5 7 5 5 9 8 8 7 7 13 17 19 20
5 5 6 6 6 5 5 4 4 4 5 5 4 4 6 8 10 12 11 10 10 10 10 10 10 9 9 8 7 7 6 4 4 4 3 5 7 7 8 7 11 15 17
5 4 5 6 5 5 5 5 4 5 5 5 5 6 6 6 6 8 9 9 11 11 11 11 11 11 10 10 8 5 7 6 4 4 4 4 4 4 4 5 6 10 13
4 4 5 6 5 6 6 6 5 5 6 7 7 6 6 5 5 6 7 9 10 10 11 12 12 12 12 12 10 8 7 5 7 6 4 3 4 2 1 1 3 6 9
Wind_Direction
125 136 142 139 139 136 134 133 130 125 121 116 109 100 91 83 80 81 86 89 91 93 92 87 84 83 82 83 83 82 82 84 87 87 83 77 74 72 61 43 72 77 74
130 137 141 138 140 139 136 131 124 120 116 112 106 98 88 82 83 93 98 99 98 97 94 89 87 85 84 85 84 83 85 92 100 103 101 90 77 71 63 56 66 70 71
128 136 140 137 140 140 136 130 125 121 117 112 106 99 90 86 89 102 108 104 103 100 94 91 89 87 85 85 84 83 86 94 101 119 135 113 92 73 67 64 68 67 66
128 139 140 136 139 139 136 132 128 124 119 114 108 102 95 94 98 102 109 106 104 99 97 95 92 89 87 86 84 83 82 71 27 330 96 104 89 77 74 74 71 64 61
130 137 133 136 137 137 136 133 130 126 122 116 112 106 101 101 101 100 104 105 103 102 101 99 95 91 89 88 85 80 58 9 350 2 77 85 85 79 75 76 72 68 65
128 124 132 133 135 137 137 135 133 130 127 122 118 114 109 106 101 101 105 106 106 106 106 104 100 94 91 90 85 70 20 353 349 62 75 83 84 82 80 77 74 73 71
123 124 133 132 135 138 139 138 137 135 133 130 127 124 120 113 107 105 108 109 111 112 112 111 106 99 94 92 86 56 356 354 39 81 79 80 84 83 80 79 77 74 71
119 126 131 134 136 139 141 143 143 141 139 138 136 133 129 124 121 117 116 117 119 120 120 118 113 107 101 97 89 40 339 348 50 92 90 85 87 84 81 79 77 75 73
121 127 135 139 140 143 146 148 149 147 146 144 142 136 131 130 131 132 131 131 131 130 129 128 125 119 114 110 108 357 312 326 7 105 99 92 90 87 83 82 79 76 74
124 132 144 149 151 151 152 155 155 154 153 151 147 141 137 138 141 145 147 146 145 144 142 139 138 135 132 133 146 224 285 301 273 110 108 103 97 92 89 86 84 81 79
110 136 150 156 160 164 164 162 159 160 160 157 155 156 156 163 165 168 165 156 157 156 155 154 153 153 153 157 173 213 258 273 146 110 114 115 108 101 97 93 90 88 85
109 116 142 155 163 169 164 157 167 170 169 173 172 172 186 197 184 176 162 161 167 169 170 171 171 176 182 181 186 209 241 255 146 120 129 128 121 115 109 105 101 98 94
188 174 144 152 157 158 145 161 176 178 177 194 190 182 201 211 171 152 155 165 175 181 186 184 187 205 216 195 180 205 233 244 143 129 140 138 135 132 126 122 117 112 105
176 183 201 221 180 172 165 178 180 178 177 191 200 190 198 201 174 167 169 176 186 196 200 186 201 218 219 189 188 208 198 245 140 129 145 146 147 148 145 140 136 131 123
171 177 189 202 205 203 204 204 198 189 181 189 198 200 196 190 185 188 187 181 189 194 196 189 206 209 198 200 208 209 186 202 189 142 151 155 157 160 162 160 157 153 145
179 182 184 193 199 194 205 222 228 224 198 193 191 202 207 200 196 197 195 192 194 198 191 192 206 206 190 193 201 212 216 203 190 151 156 161 165 169 173 175 174 170 163
195 189 185 191 194 195 201 208 221 231 227 210 199 199 207 210 205 202 198 197 199 203 198 194 206 206 186 182 195 207 217 219 194 160 160 165 169 175 180 185 185 181 177
257 213 198 194 194 197 198 200 208 220 229 224 217 209 209 212 211 208 201 209 204 202 199 191 201 197 188 180 188 205 204 207 209 185 167 168 173 179 186 192 191 189 187
283 277 248 209 201 205 202 199 200 206 217 227 229 225 222 217 213 209 207 211 209 202 196 196 196 190 189 190 197 200 198 192 209 210 181 173 175 179 184 193 193 192 191
348 330 317 282 235 226 213 205 201 205 210 217 227 233 233 229 222 215 210 212 211 205 204 198 194 196 193 188 198 202 201 197 196 204 202 187 178 177 181 186 188 190 193
360 344 330 323 310 286 240 219 210 213 216 217 220 228 234 236 233 225 219 215 214 216 210 201 191 199 206 177 166 212 252 226 211 208 202 192 185 182 181 182 185 187 193
16 12 354 342 334 330 318 279 237 232 225 224 223 223 226 230 234 232 224 224 221 224 220 210 203 201 201 184 164 148 222 252 247 222 204 205 196 187 188 185 185 187 190
39 23 357 347 342 338 339 340 330 310 278 257 246 231 223 225 229 229 228 225 225 225 229 223 214 208 208 202 186 172 183 214 224 230 217 209 201 191 191 190 189 187 185
47 21 352 342 334 330 331 323 309 294 280 266 259 252 242 229 227 226 225 224 226 226 228 228 223 220 210 210 213 220 218 182 179 213 247 220 206 199 192 192 191 188 183
51 18 346 337 338 346 341 326 308 294 288 293 294 281 271 257 241 232 227 226 227 228 228 227 225 224 220 217 208 207 231 247 232 178 214 224 218 215 195 186 179 180 179
45 18 350 346 351 356 349 339 324 309 307 309 306 300 292 281 266 247 236 233 230 228 227 228 227 227 226 224 218 207 198 207 214 209 205 189 203 225 189 143 154 161 167
Height
1524 1526 1529 1531 1533 1535 1538 1540 1542 1543 1545 1545 1546 1546 1547 1546 1546 1546 1546 1547 1548 1550 1550 1551 1551 1551 1552 1552 1554 1555 1556 1557 1558 1558 1558 1558 1558 1558 1558 1558 1558 1558 1559
1523 1526 1529 1531 1533 1536 1538 1541 1542 1544 1545 1546 1547 1547 1547 1547 1547 1547 1548 1549 1550 1551 1552 1552 1552 1552 1552 1553 1554 1555 1557 1558 1559 1559 1559 1559 1559 1559 1559 1559 1560 1560 1560
1523 1526 1529 1532 1534 1537 1539 1541 1543 1544 1546 1546 1547 1547 1547 1547 1548 1548 1549 1551 1552 1553 1554 1554 1554 1554 1554 1554 1555 1556 1558 1559 1560 1560 1560 1561 1561 1561 1561 1561 1561 1561 1561
1523 1527 1530 1533 1535 1537 1539 1542 1543 1545 1546 1547 1547 1548 1548 1548 1549 1550 1551 1553 1554 1555 1556 1556 1556 1556 1556 1556 1557 1558 1559 1561 1562 1562 1563 1563 1563 1562 1562 1562 1563 1563 1563
1524 1527 1530 1533 1535 1538 1540 1542 1544 1545 1546 1547 1548 1548 1549 1550 1551 1552 1553 1554 1555 1557 1557 1558 1558 1558 1558 1558 1559 1560 1562 1563 1563 1564 1565 1564 1564 1564 1564 1564 1564 1564 1564
1526 1527 1531 1533 1536 1538 1541 1543 1544 1545 1546 1547 1548 1549 1550 1551 1552 1553 1554 1556 1557 1558 1559 1559 1560 1560 1560 1561 1561 1562 1563 1564 1564 1565 1566 1565 1565 1565 1565 1565 1565 1565 1566
1527 1528 1532 1534 1536 1539 1541 1543 1544 1546 1547 1548 1549 1550 1551 1552 1553 1554 1555 1557 1558 1559 1560 1561 1561 1561 1562 1563 1563 1564 1565 1565 1566 1566 1566 1566 1566 1566 1566 1566 1566 1566 1566
1528 1529 1532 1534 1537 1539 1541 1543 1545 1546 1547 1548 1549 1550 1551 1552 1554 1555 1556 1557 1559 1560 1561 1562 1562 1563 1563 1564 1565 1566 1566 1566 1567 1567 1567 1567 1567 1567 1567 1567 1567 1567 1567
1529 1530 1532 1535 1537 1539 1541 1543 1545 1546 1547 1548 1549 1551 1552 1553 1554 1555 1556 1558 1559 1560 1561 1562 1563 1564 1564 1565 1566 1567 1567 1568 1568 1568 1568 1568 1568 1568 1567 1567 1567 1566 1566
1531 1531 1533 1535 1537 1539 1541 1543 1544 1546 1547 1548 1549 1551 1552 1553 1554 1555 1556 1558 1559 1560 1561 1562 1563 1564 1565 1565 1566 1567 1568 1569 1569 1568 1568 1568 1568 1568 1567 1566 1566 1565 1564
1532 1533 1533 1535 1537 1539 1541 1542 1544 1545 1547 1548 1549 1551 1552 1553 1554 1555 1556 1557 1559 1560 1561 1562 1563 1564 1565 1565 1566 1567 1568 1569 1569 1568 1567 1568 1567 1567 1566 1565 1565 1564 1563
1531 1533 1535 1536 1538 1539 1540 1541 1543 1544 1546 1547 1549 1550 1551 1552 1553 1554 1556 1557 1558 1559 1560 1561 1562 1563 1564 1565 1565 1566 1567 1568 1569 1567 1567 1567 1567 1566 1565 1564 1564 1563 1562
1529 1531 1533 1536 1538 1540 1540 1541 1542 1543 1544 1546 1547 1549 1551 1552 1553 1553 1554 1556 1557 1558 1559 1560 1561 1562 1563 1563 1564 1565 1566 1567 1567 1565 1565 1566 1565 1565 1564 1563 1563 1562 1562
1527 1529 1532 1534 1536 1538 1539 1540 1542 1543 1543 1545 1546 1548 1549 1551 1552 1552 1553 1554 1556 1557 1558 1559 1560 1560 1561 1562 1562 1563 1564 1565 1565 1563 1563 1564 1564 1563 1563 1562 1562 1561 1561
1527 1528 1530 1532 1533 1535 1537 1539 1541 1542 1543 1544 1545 1547 1548 1549 1550 1551 1551 1552 1553 1554 1555 1556 1558 1558 1559 1560 1560 1561 1562 1562 1563 1561 1561 1561 1561 1561 1561 1561 1560 1560 1560
1526 1527 1528 1530 1531 1533 1535 1537 1538 1541 1542 1543 1543 1545 1546 1547 1548 1549 1550 1550 1551 1552 1553 1554 1555 1557 1557 1558 1558 1559 1559 1560 1560 1559 1558 1558 1559 1559 1559 1559 1559 1559 1559
1524 1526 1527 1528 1529 1530 1532 1534 1536 1537 1539 1540 1541 1542 1543 1544 1545 1546 1547 1548 1548 1550 1551 1551 1552 1554 1554 1554 1555 1555 1556 1557 1557 1557 1555 1555 1555 1556 1556 1556 1556 1557 1557
1522 1524 1525 1526 1527 1528 1530 1531 1532 1534 1536 1537 1539 1539 1540 1540 1542 1542 1543 1544 1545 1546 1547 1548 1548 1550 1550 1550 1550 1551 1552 1553 1553 1554 1552 1551 1551 1552 1553 1553 1553 1554 1554
1520 1521 1523 1524 1525 1526 1527 1528 1529 1530 1532 1533 1534 1535 1536 1537 1537 1538 1539 1540 1541 1542 1542 1543 1544 1545 1545 1546 1546 1547 1547 1548 1549 1550 1549 1548 1547 1547 1548 1549 1550 1550 1551
1516 1517 1519 1521 1522 1523 1524 1525 1526 1526 1527 1528 1529 1530 1531 1532 1533 1533 1534 1535 1536 1536 1537 1537 1538 1539 1540 1541 1542 1542 1542 1543 1543 1544 1544 1544 1543 1543 1543 1544 1545 1546 1547
1512 1514 1515 1517 1518 1519 1520 1521 1521 1522 1522 1523 1524 1525 1526 1527 1527 1528 1528 1529 1530 1531 1531 1532 1533 1534 1535 1536 1537 1537 1537 1537 1537 1537 1538 1538 1538 1538 1538 1539 1540 1541 1542
1509 1510 1511 1512 1513 1514 1515 1516 1516 1517 1517 1517 1518 1519 1520 1520 1521 1522 1522 1523 1524 1525 1526 1527 1527 1527 1528 1530 1530 1530 1531 1531 1529 1529 1530 1531 1532 1532 1533 1533 1534 1535 1536
1505 1506 1507 1507 1508 1509 1510 1510 1510 1511 1511 1512 1513 1513 1514 1514 1515 1515 1516 1517 1517 1518 1519 1520 1521 1521 1521 1522 1523 1524 1523 1521 1522 1522 1522 1523 1525 1525 1526 1527 1527 1528 1529
1503 1503 1504 1504 1504 1504 1505 1505 1505 1506 1506 1507 1507 1508 1508 1509 1509 1509 1509 1510 1510 1511 1511 1512 1514 1514 1515 1514 1515 1515 1516 1517 1517 1515 1516 1516 1518 1518 1519 1520 1521 1523 1524
1501 1501 1501 1501 1501 1501 1500 1500 1500 1500 1501 1501 1502 1502 1502 1503 1503 1503 1503 1503 1503 1503 1504 1505 1506 1507 1507 1507 1507 1507 1509 1511 1511 1510 1509 1509 1511 1512 1513 1514 1515 1516 1518
1500 1499 1499 1498 1498 1497 1497 1497 1496 1496 1496 1496 1496 1496 1496 1497 1497 1497 1497 1496 1496 1496 1497 1497 1498 1499 1499 1499 1500 1500 1501 1502 1503 1504 1503 1503 1504 1506 1507 1508 1508 1508 1510